World > North America > United States > Washington

East Selah, Washington Regional Weather

Lat: 46.66N, Lon: 120.49W
Wx Zone: WAZ027Web Search

Our weather pages are very print friendly and they make great conversation starters.

Feedback


°F Click to change East Selah hourly weather to Imperial units.Click to change East Selah hourly weather to Metric units. °C
East Selah Weather Map
UTC Time: 4/15/2021, 11:50
Your Time:

East Selah, WA Regional Weather

Expires:202104151200;;587494
ASUS46 KSEW 151120
RWRWA 

WASHINGTON REGIONAL WEATHER ROUNDUP
NATIONAL WEATHER SERVICE SEATTLE WA
400 AM PDT THU APR 15 2021

NOTE:"FAIR" INDICATES FEW OR NO CLOUDS BELOW 12,000 FEET WITH NO 
SIGNIFICANT WEATHER AND/OR OBSTRUCTIONS TO VISIBILITY.


WAZ026-027-041>044-520-521-151200-
EAST SLOPES
  
CITY           SKY/WX    TMP DP  RH WIND       PRES   REMARKS
OMAK           CLEAR     48  23  37 N12       30.14S                  
WENATCHEE      CLEAR     47  27  45 NW5       30.11S                  
ELLENSBURG     CLEAR     38  25  59 W6        30.10R                  
YAKIMA         CLEAR     42  25  50 NW5       30.09S                  
SUNNYSIDE ARPT SUNNY     48  29  47 NW9       30.06                   
YAKIMA TC      FAIR      44  24  44 SE6       30.08R                  
$$


SKY/WX - Weather  TMP - Temperature  DP - Dew Point  RH - Relative Humidity
WIND - Wind Direction/Speed PRES - Barometric Pressure VSB - Visibility
WCI - Wind Chill Index E13G22 Wind - East Wind 13 mph/Gusts of 22 mph